Regional Weather Roundup
Issued by NWS New Orleans/Baton Rouge, LA

Home | Current Version | Previous Version | Text Only | Print | Product List | Glossary Off
Versions: 1 2 3 4 5 6 7 8 9 10 11 12 13 14 15 16 17 18 19 20 21 22 23 24 25 26 27 28 29 30 31 32 33 34 35 36 37 38 39 40 41 42 43 44 45 46 47 48 49 50

256
ASUS44 KLIX 011901
RWRLIX
NEW ORLEANS REGIONAL WEATHER ROUNDUP
NATIONAL WEATHER SERVICE NEW ORLEANS LA
200 PM CDT WED OCT 01 2014

NOTE: "FAIR" INDICATES FEW OR NO CLOUDS BELOW 12,000 FEET WITH NO
      SIGNIFICANT WEATHER AND/OR OBSTRUCTIONS TO VISIBILITY.
      SKY/WX - SKY CONDITION AND SIGNIFICANT WEATHER.
      TMP - AIR TEMPERATURE.     DP    - DEWPOINT TEMPERATURE.
      RH  - RELATIVE HUMIDITY.   PRES  - PRESSURE.
      HI  - HEAT INDEX.          WCI   - WIND CHILL INDEX.

*  THESE STATIONS ARE NOT NWS OR FAA STATIONS AND ARE NOT UNDER
   NWS QUALITY CONTROL.

LAZ038-040-048-061>063-065>067-069-012000-
SOUTHEAST LOUISIANA

CITY           SKY/WX    TMP DP  RH WIND       PRES   REMARKS
N.O. AUDUBON     N/A     82  76  82 MISG        N/A
N.O. INTL ARPT PTSUNNY   83  73  72 E7        29.90F
N.O. LAKEFRONT CLOUDY    82  73  74 SE12      29.91F
N.O. DOWNTOWN*   N/A     81  72  74 SE6       29.91F
SLIDELL        CLOUDY    82  71  69 SE8       29.90F
BATON ROUGE    CLOUDY    84  75  74 SE12      29.88F
BOOTHVILLE     CLOUDY    80  75  84 SE8       29.92F
BELLE CHASSE   PTSUNNY   82  71  69 SE10      29.90F
BOGALUSA*        N/A     85  70  60 SE6       29.92F
GALLIANO*      NOT AVBL
NEW ROADS*     CLOUDY    82  73  76 S9        29.88F
GONZALES*      CLOUDY    81  79  94 CALM      29.89F
HAMMOND*       NOT AVBL
HOUMA*         PTSUNNY  N/A N/A N/A SE12      29.90F
PORT FOURCHON* NOT AVBL

$$

MSZ070-080>082-012000-
SOUTHERN MISSISSIPPI

CITY           SKY/WX    TMP DP  RH WIND       PRES   REMARKS
MCCOMB         MOSUNNY   83  70  64 S8G16     29.91F
GULFPORT       CLOUDY    80  72  76 SE13      29.91F
BILOXI         NOT AVBL
PASCAGOULA     CLOUDY    82  70  66 S9        29.93F
STENNIS ARPT*  PTSUNNY   81  70  69 SE10      29.92F

$$

COASTAL OBSERVATIONS
LAKE AND NEARSHORE STATIONS

STATION/POSITION TIME  TEMP    WIND        PRES    WAVE
                       AIR SEA DIR/SP/G            HT/PER
                 (UTC) (F)     (DEG/KT/KT) (MB)    (FT/S)
PASCAGOULA       1800   81     110/  8/ 11 1013.3
WAVELAND YACHT   1800   78     110/ 11/ 14 1012.5
GRAND ISLE       1800   80 81  120/  4/ 10 1013.4
SOUTHWEST PASS   1800   85 86  100/ 10/ 12 1013.2
NEW CANAL        1800   82 77  120/  3/  9 1013.1
SHELL BEACH      1800   79 76  120/  9/ 12 1013.0

OFFSHORE STATIONS

STATION/POSITION TIME  TEMP    WIND        PRES    WAVE
                       AIR SEA DIR/SP/G            HT/PER
                 (UTC) (F)     (DEG/KT/KT) (MB)    (FT/S)
64 S DAUPHIN ISL 1842   80 83  120/  8/ 10 1013.7    1/ 4

$$




USA.gov is the U.S. government's official web portal to all federal, state and local government web resources and services.